Location: ?
(35.3436°N, 139.3168°E)
Time: 10:19:35
(UTC+00:00)

X-37B - Pass Details

Date: 24 January 2021
Orbit: 383 x 391 km, 45.0° (Epoch: 10 February)

Event Time Altitude Azimuth Distance (km) Brightness Sun altitude
Rises 09:10:11 0° 292° (WNW) 2,271 5.4 -13.9°
Reaches altitude 10° 09:12:55 10° 317° (NW) 1,419 3.8 -14.5°
Maximum altitude 09:14:50 15° 355° (N) 1,165 2.9 -14.9°
Enters shadow 09:15:45 14° 14° (NNE) 1,225 2.8 -15.0°
